STARLINK-11673, 64318

Orbit data source: Space-Track

STARLINK-11673, 64318 is a payload satellite owned by SpaceX/Seattle (US) in LEO that was launched on Tue, 10 Jun 2025 UTC via an FALCON 9 launch vehicle from the Air Force Eastern Test Range (AFETR). Payload-class satellites include a variety of spacecraft equipped with specific instruments for various scientific and technological missions. These include communications satellites like Starlink; space stations such as the ISS; scientific satellites like the Hubble; Earth observation satellites from companies like Planet Labs, Umbra, and HawkEye 360; GPS; miniature CubeSats for education and research; and military/defense satellites.

Loading next visibility...
Identifier
64318, 2025-124B
Orbit
LEO
Last TLE update
17 hours ago
Origin
Manufacturer
SpaceX/Seattle
Mission
Operational spacecraft
Bus & Motor
STARLINK V2M, Unknown motor
Mass
730 kg wet, ~700 kg dry
Launch date (UTC)
2025-06-10 (3 weeks ago)
Launch vehicle
FALCON 9
Launch site
Air Force Eastern Test Range (AFETR)
Object type
Payload
Rocket body
Debris
Shape & HBR
Unknown
Radar Cross Section
Large (>1 m²)

Expand to show TLE details & history

TLE from 17 hours ago
0 STARLINK-11673
1 64318U 25124B   25182.21161582  .00119668  00000-0  67998-3 0  9993
2 64318  43.0011 105.9302 0001516 276.9056  83.1641 15.77886605  3279
Epoch: 2025-07-01T05:04Z
TLE epoch observation values (Epoch: 2025-07-01T05:04:43.606Z)
Latitude
-0.00009°
Longitude
110.23809°
Altitude
336.079 km
Speed
7.709 km/s
True Right ascension
07h 03m 43s
True Declination
0° 00' 00"
Sunlit
Object was in daylight at epoch
Visualization orbit readout
Latitude
42.61489°
Longitude
-175.27438°
Altitude
339.883 km
Speed
7.71 km/s
Apparent Right ascension
16h 50m 56s
Apparent Declination
9° 09' 31"
Sunlit
Object is in daylight
Visualization observer readout
Local Sidereal Time
09:48:22
Azimuth
72.877° E
Elevation
-5.856°
Doppler factor
1
Orbital elements
Apogee altitude
339.435 km
Perigee altitude
337.399 km
Semi-major axis
6,716.554 km
Eccentricity
0.00015
Inclination
43.0011°
RAAN
105.9302°
Arg. of periapsis
276.9056°
True anomaly
Unknown
Mean anomaly
83.1641°
Eccentric anomaly
Unknown
Mean motion
3.94297 °/min
Orbital period
91.3 mins
BSTAR
0.00067998
Loading maneuver chart data...
Loading SW <> Apogee altitude chart data...
Loading historical data...
Loading historical data...
Loading historical data...
Loading historical data...
Loading historical data...
Loading historical data...
Loading historical data...

STARLINK-11673 Visibility forecast

Observer location: undefined°, undefined°

Span
Click to sort rows by Start time (UTC) header in descending order
Start Az.
Max El. time (UTC)
Max El. Az.
Max El.
End time (UTC)
End Az.
4 mins2025-07-01 23:35:00.252Z261.705° W2025-07-01 23:37:00.252Z339.571° N43.312°2025-07-01 23:39:00.252Z67.259° ENE
4 mins2025-07-02 02:47:00.252Z287.546° WNW2025-07-02 02:49:00.252Z114.738° SE42.38°2025-07-02 02:51:00.252Z110.172° ESE
|